Location: Buchloe
(48.0161°N, 10.7316°E)
Time: 07:25:19
(UTC+02:00)

ISS - Pass Details

Date: 09 July 2025
Orbit: 413 x 417 km, 51.6° (Epoch: 16 July)

Event Time Altitude Azimuth Distance (km) Brightness Sun altitude
Rises 03:37:24 0° 292° (WNW) 2,357 0.0 -13.4°
Reaches altitude 10° 03:39:30 10° 290° (WNW) 1,493 -1.1 -13.2°
Maximum altitude 03:42:49 64° 208° (SSW) 464 -3.9 -12.9°
Drops below altitude 10° 03:46:08 10° 126° (SE) 1,488 -1.0 -12.6°
Sets 03:48:14 0° 124° (ESE) 2,349 0.1 -12.4°
